Voltar ao catálogo

STARLINK-35153

AtivoComunicaçõesVLEO
NORAD 65625·PAYLOAD·🇺🇸 United States

Lançado Sep 18, 2025 de Cape Canaveral Space Force Station

Loading…

Próximas Passagens (próximas 24 horas)

TLE

AtualizadoSource: CelesTrak SupGP

Época: Sep 14, 2026, 20:49 UTC

1 65625C 25210D   26257.86784722 -.00049803  00000+0 -14712-2 0  2579
2 65625  53.1572 143.7795 0001105  93.8357 129.0049 15.34420457    18

Acompanhe STARLINK-35153 em tempo real com AllMySat

Download on the App Store